When you browse on this site, cookies collect data to enhance your experience and personalize the content and advertising you see.
Visit our Privacy Policy to learn more. By continuing to use the site, you agree to this use of cookies and data.
  • In Hungary
  • List of Countries
  • For 7 days
  • Water Temperature
  • Satellite Maps
  • Weather Map
  • News
  • Weather Widgets
  • user-avatar
    Login

    Hourly Weather Bratunac

    Today, 19 February, Tuesday

    Time Temperature Precipitation Wind Pressure Humidity
    00:00 +4°C° 0 mm 1 mps 714 mmHg 76%
    01:00 +4°C° 0 mm 1 mps 714 mmHg 76%
    02:00 +3°C° 0 mm 1 mps 714 mmHg 76%
    03:00 +2°C° 0 mm 2 mps 713 mmHg 75%
    04:00 +2°C° 0 mm 2 mps 713 mmHg 75%
    05:00 +2°C° 0 mm 2 mps 713 mmHg 74%
    06:00 +2°C° 0 mm 2 mps 713 mmHg 73%
    07:00 +1°C° 0 mm 2 mps 713 mmHg 72%
    08:00 +5°C° 0 mm 1 mps 713 mmHg 66%
    09:00 +7°C° 0 mm 1 mps 714 mmHg 59%
    10:00 +10°C° 0 mm 1 mps 714 mmHg 53%
    11:00 +11°C° 0 mm 1 mps 714 mmHg 49%
    12:00 +13°C° 0 mm 1 mps 714 mmHg 45%
    13:00 +14°C° 0 mm 0 mps 714 mmHg 41%
    14:00 +13°C° 0 mm 0 mps 713 mmHg 44%
    15:00 +12°C° 0 mm 0 mps 713 mmHg 48%
    16:00 +12°C° 0 mm 0 mps 713 mmHg 51%
    17:00 +10°C° 0 mm 0 mps 713 mmHg 56%
    18:00 +9°C° 0 mm 1 mps 713 mmHg 61%
    19:00 +7°C° 0 mm 1 mps 713 mmHg 66%
    20:00 +7°C° 0 mm 1 mps 713 mmHg 69%
    21:00 +6°C° 0 mm 1 mps 713 mmHg 72%
    22:00 +5°C° 0 mm 1 mps 713 mmHg 74%
    23:00 +5°C° 0 mm 1 mps 713 mmHg 76%

    Tomorrow, 20 February, Wednesday

    Time Temperature Precipitation Wind Pressure Humidity
    00:00 +5°C° 0 mm 1 mps 714 mmHg 77%
    01:00 +4°C° 0 mm 1 mps 714 mmHg 79%
    02:00 +4°C° 0 mm 1 mps 714 mmHg 79%
    03:00 +4°C° 0 mm 1 mps 714 mmHg 80%
    04:00 +4°C° 0 mm 1 mps 714 mmHg 80%
    05:00 +3°C° 0 mm 1 mps 714 mmHg 81%
    06:00 +3°C° 0 mm 1 mps 714 mmHg 81%
    07:00 +3°C° 0 mm 1 mps 714 mmHg 81%
    08:00 +5°C° 0 mm 1 mps 715 mmHg 74%
    09:00 +8°C° 0 mm 1 mps 715 mmHg 66%
    10:00 +10°C° 0 mm 1 mps 716 mmHg 58%
    11:00 +11°C° 0 mm 1 mps 716 mmHg 58%
    12:00 +11°C° 0 mm 1 mps 716 mmHg 57%
    13:00 +12°C° 0 mm 1 mps 716 mmHg 56%
    14:00 +12°C° 0 mm 1 mps 716 mmHg 59%
    15:00 +11°C° 0 mm 1 mps 715 mmHg 62%
    16:00 +11°C° 0 mm 1 mps 715 mmHg 65%
    17:00 +9°C° 0 mm 1 mps 716 mmHg 70%
    18:00 +7°C° 0 mm 0 mps 716 mmHg 75%
    19:00 +6°C° 0 mm 0 mps 716 mmHg 80%
    20:00 +5°C° 0 mm 0 mps 716 mmHg 81%
    21:00 +5°C° 0 mm 0 mps 717 mmHg 82%
    22:00 +4°C° 0 mm 0 mps 717 mmHg 84%
    23:00 +4°C° 0 mm 0 mps 717 mmHg 85%

    Day after tomorrow, 21 February, Thursday

    Time Temperature Precipitation Wind Pressure Humidity
    00:00 +4°C° 0 mm 0 mps 717 mmHg 86%
    01:00 +3°C° 0 mm 0 mps 717 mmHg 87%
    02:00 +3°C° 0 mm 0 mps 717 mmHg 88%
    03:00 +3°C° 0 mm 0 mps 717 mmHg 89%
    04:00 +2°C° 0 mm 0 mps 717 mmHg 89%
    05:00 +3°C° 0 mm 1 mps 717 mmHg 89%
    06:00 +3°C° 0 mm 1 mps 717 mmHg 89%
    07:00 +3°C° 0 mm 1 mps 718 mmHg 89%
    08:00 +4°C° 0 mm 0 mps 718 mmHg 80%
    09:00 +7°C° 0 mm 0 mps 718 mmHg 71%
    10:00 +9°C° 0 mm 0 mps 719 mmHg 62%
    11:00 +10°C° 0 mm 0 mps 719 mmHg 58%
    12:00 +11°C° 0 mm 0 mps 718 mmHg 54%
    13:00 +12°C° 0 mm 1 mps 718 mmHg 50%
    14:00 +12°C° 0 mm 1 mps 718 mmHg 51%
    15:00 +12°C° 0 mm 1 mps 718 mmHg 52%
    16:00 +11°C° 0 mm 1 mps 717 mmHg 53%
    17:00 +10°C° 0 mm 1 mps 717 mmHg 59%
    18:00 +7°C° 0 mm 0 mps 717 mmHg 64%
    19:00 +6°C° 0 mm 0 mps 717 mmHg 70%
    20:00 +6°C° 0 mm 0 mps 717 mmHg 71%
    21:00 +6°C° 0 mm 0 mps 717 mmHg 72%
    22:00 +7°C° 0 mm 1 mps 718 mmHg 74%
    23:00 +7°C° 0.1 mm 1 mps 717 mmHg 75%

    22 February, Friday

    Time Temperature Precipitation Wind Pressure Humidity
    00:00 +6°C° 0.1 mm 1 mps 717 mmHg 77%
    01:00 +6°C° 0.1 mm 1 mps 717 mmHg 79%
    02:00 +6°C° 0.1 mm 1 mps 717 mmHg 81%
    03:00 +6°C° 0.1 mm 1 mps 716 mmHg 82%
    04:00 +6°C° 0.1 mm 1 mps 716 mmHg 84%
    05:00 +6°C° 0.2 mm 1 mps 716 mmHg 83%
    06:00 +5°C° 0.2 mm 2 mps 716 mmHg 83%
    07:00 +5°C° 0.2 mm 2 mps 715 mmHg 83%
    08:00 +5°C° 1.3 mm 2 mps 715 mmHg 86%
    09:00 +4°C° 1.3 mm 3 mps 715 mmHg 89%
    10:00 +4°C° 1.3 mm 3 mps 715 mmHg 91%
    11:00 +4°C° 1.6 mm 3 mps 715 mmHg 92%
    12:00 +4°C° 1.6 mm 4 mps 714 mmHg 92%
    13:00 +4°C° 1.6 mm 4 mps 714 mmHg 93%
    14:00 +4°C° 1.4 mm 4 mps 714 mmHg 92%
    15:00 +4°C° 1.4 mm 4 mps 714 mmHg 92%
    16:00 +4°C° 1.4 mm 4 mps 714 mmHg 92%
    17:00 +4°C° 1.6 mm 4 mps 714 mmHg 92%
    18:00 +3°C° 1.6 mm 5 mps 715 mmHg 93%
    19:00 +3°C° 1.6 mm 5 mps 715 mmHg 93%
    20:00 +1°C° 0.6 mm 5 mps 716 mmHg 87%
    21:00 -1°C° 0.6 mm 5 mps 716 mmHg 81%
    22:00 -4°C° 0.6 mm 5 mps 717 mmHg 75%
    23:00 -5°C° 0 mm 5 mps 717 mmHg 75%

    23 February, Saturday

    Time Temperature Precipitation Wind Pressure Humidity
    00:00 -6°C° 0 mm 5 mps 718 mmHg 75%
    01:00 -7°C° 0 mm 5 mps 718 mmHg 75%
    02:00 -8°C° 0 mm 5 mps 719 mmHg 73%
    03:00 -8°C° 0 mm 4 mps 719 mmHg 72%
    04:00 -8°C° 0 mm 4 mps 719 mmHg 71%
    05:00 -9°C° 0 mm 4 mps 720 mmHg 69%
    06:00 -9°C° 0 mm 4 mps 720 mmHg 67%
    07:00 -9°C° 0 mm 4 mps 720 mmHg 65%
    08:00 -8°C° 0 mm 4 mps 721 mmHg 61%
    09:00 -8°C° 0 mm 4 mps 721 mmHg 56%
    10:00 -7°C° 0 mm 4 mps 722 mmHg 52%
    11:00 -5°C° 0 mm 4 mps 722 mmHg 49%
    12:00 -4°C° 0 mm 4 mps 721 mmHg 46%
    13:00 -4°C° 0 mm 4 mps 721 mmHg 43%
    14:00 -4°C° 0 mm 4 mps 721 mmHg 42%
    15:00 -4°C° 0 mm 4 mps 721 mmHg 41%
    16:00 -4°C° 0 mm 4 mps 721 mmHg 40%
    17:00 -5°C° 0 mm 3 mps 721 mmHg 43%
    18:00 -5°C° 0 mm 3 mps 721 mmHg 47%
    19:00 -5°C° 0 mm 2 mps 721 mmHg 50%
    20:00 -5°C° 0 mm 2 mps 721 mmHg 51%
    21:00 -5°C° 0 mm 2 mps 721 mmHg 52%
    22:00 -6°C° 0 mm 2 mps 721 mmHg 53%
    23:00 -6°C° 0 mm 2 mps 721 mmHg 53%

    24 February, Sunday

    Time Temperature Precipitation Wind Pressure Humidity
    00:00 -6°C° 0 mm 2 mps 720 mmHg 54%
    01:00 -6°C° 0 mm 2 mps 720 mmHg 55%
    02:00 -6°C° 0 mm 2 mps 720 mmHg 56%
    03:00 -6°C° 0 mm 2 mps 720 mmHg 56%
    04:00 -6°C° 0 mm 2 mps 720 mmHg 56%
    05:00 -6°C° 0 mm 2 mps 720 mmHg 57%
    06:00 -6°C° 0 mm 2 mps 720 mmHg 58%
    07:00 -6°C° 0 mm 2 mps 720 mmHg 58%
    08:00 -5°C° 0 mm 2 mps 720 mmHg 53%
    09:00 -5°C° 0 mm 3 mps 720 mmHg 48%
    10:00 -4°C° 0 mm 3 mps 720 mmHg 43%
    11:00 -2°C° 0 mm 3 mps 720 mmHg 43%
    12:00 -2°C° 0 mm 4 mps 720 mmHg 43%
    13:00 -2°C° 0 mm 4 mps 720 mmHg 43%
    14:00 -2°C° 0 mm 4 mps 720 mmHg 47%
    15:00 -2°C° 0 mm 4 mps 720 mmHg 50%
    16:00 -2°C° 0 mm 4 mps 719 mmHg 53%
    17:00 -2°C° 0 mm 3 mps 719 mmHg 59%
    18:00 -2°C° 0 mm 2 mps 720 mmHg 64%
    19:00 -3°C° 0 mm 2 mps 720 mmHg 70%
    20:00 -3°C° 0 mm 2 mps 720 mmHg 71%
    21:00 -2°C° 0 mm 1 mps 720 mmHg 73%
    22:00 -2°C° 0 mm 1 mps 720 mmHg 74%
    23:00 -2°C° 0 mm 1 mps 720 mmHg 75%
    Show more